Greenwood, Nova Scotia

4:50 AM ADT on June 24, 2017 (GMT -0300)
Greenwood

Weather History for CYZX - September, 2013

Change the Weather History Date:

Friday, September 13, 2013

  Actual Average Record
Temperature  
Mean Temperature 68 °F -  
Max Temperature 71 °F 63 °F 80 °F (2012)
Min Temperature 65 °F 42 °F 37 °F (2001)
Cooling Degree Days 3    
Growing Degree Days 18 (Base 50)    
Moisture  
Dew Point 68 °F    
Average Humidity 93    
Maximum Humidity 100    
Minimum Humidity 83    
Precipitation  
Precipitation 1.06 in 0.12 in - ()
Sea Level Pressure  
Sea Level Pressure 29.68 in    
Wind  
Wind Speed 5 mph ()    
Max Wind Speed 10 mph    
Max Gust Speed -    
Visibility 10.4 miles    
Events Rain    
Averages and records for this station are not official NWS values.
T = Trace of Precipitation, MM = Missing Value Source: Averaged Metar Reports

Daily Weather History Graph

Daily Weather History Graph

Search for Another Location

Airport or City:

Trip Planner

Search our weather history database for the weather conditions in past years. The results will help you decide how hot, cold, wet, or windy it might be!

Date:

Astronomy

Sep. 13, 2013 Rise Set
Actual Time 6:56 AM ADT 7:33 PM ADT
Civil Twilight 6:26 AM ADT 8:03 PM ADT
Nautical Twilight 5:51 AM ADT 8:38 PM ADT
Astronomical Twilight 5:15 AM ADT 9:14 PM ADT
Moon 3:31 PM ADT (9/13) 12:09 AM ADT (9/13)
Length of Visible Light 13h 36m
Length of Day
12h 37m
First Quarter, 61% of the Moon is Illuminated
Sep 13
First Quarter
Sep 19
Full
Sep 27
Last Quarter
Oct 4
New
Oct 11
First Quarter

Hourly Weather History & Observations

Time (ADT) Temp. Dew Point Humidity Pressure Visibility Wind Dir Wind Speed Gust Speed Precip Events Conditions
12:00 AM 69.8 °F 64.4 °F 83% 29.80 in 15.0 mi SSW 6.9 mph - N/A   Mostly Cloudy
1:00 AM 68.0 °F 62.6 °F 83% 29.79 in 15.0 mi SSW 10.4 mph - N/A   Mostly Cloudy
2:00 AM 68.0 °F 64.4 °F 88% 29.77 in 15.0 mi WSW 4.6 mph - N/A   Mostly Cloudy
3:00 AM 67 °F 64 °F 89% 29.74 in 15 mi Calm Calm - -   Partly Cloudy
3:00 AM 68.0 °F 64.4 °F 88% 29.74 in 15.0 mi Calm Calm - N/A   Mostly Cloudy
3:33 AM - - N/A% - 15.0 mi South 6.9 mph - N/A   Mostly Cloudy
3:52 AM - - N/A% - 15.0 mi South 8.1 mph - N/A Rain Light Rain Showers
4:00 AM 69.8 °F 68.0 °F 94% 29.73 in 15.0 mi South 5.8 mph - N/A Rain Light Rain Showers
4:41 AM - - N/A% - 5.0 mi South 8.1 mph - N/A Rain Light Rain Showers
5:00 AM 69.8 °F 68.0 °F 94% 29.71 in 5.0 mi South 9.2 mph - N/A Rain Light Rain Showers
5:29 AM - - N/A% - 10.0 mi South 9.2 mph - N/A Rain Light Rain Showers
6:00 AM 69.8 °F 68.0 °F 94% 29.70 in 12.0 mi SSW 8.1 mph - N/A Rain Light Rain Showers
6:52 AM - - N/A% - 15.0 mi SW 6.9 mph - N/A   Overcast
7:00 AM 69.8 °F 68.0 °F 94% 29.70 in 15.0 mi SW 5.8 mph - N/A   Overcast
7:22 AM - - N/A% - 15.0 mi SSW 3.5 mph - N/A   Mostly Cloudy
8:00 AM 69.8 °F 68.0 °F 94% 29.70 in 15.0 mi SSE 8.1 mph - N/A   Mostly Cloudy
9:00 AM 71 °F 69 °F 92% 29.70 in 15 mi SW 4.6 mph - -   Partly Cloudy
9:00 AM 71.6 °F 69.8 °F 94% 29.70 in 15.0 mi SW 4.6 mph - N/A   Mostly Cloudy
9:12 AM - - N/A% - 15.0 mi South 3.5 mph - N/A Rain Light Rain Showers
10:00 AM 71.6 °F 69.8 °F 94% 29.71 in 15.0 mi South 2.3 mph - N/A Rain Light Rain Showers
10:48 AM - - N/A% - 4.0 mi WSW 2.3 mph - N/A Rain Light Rain Showers
11:00 AM 71.6 °F 69.8 °F 94% 29.71 in 4.0 mi SW 5.8 mph - N/A Rain Light Rain Showers
11:20 AM - - N/A% - 2.5 mi SSW 3.5 mph - N/A Rain Light Rain Showers
11:48 AM - - N/A% - 6.0 mi SSW 3.5 mph - N/A Rain Light Rain Showers
12:00 PM 71.6 °F 69.8 °F 94% 29.70 in 12.0 mi South 4.6 mph - N/A Rain Light Rain Showers
12:21 PM - - N/A% - 3.0 mi South 8.1 mph - N/A Rain Light Rain Showers
1:00 PM 71.6 °F 69.8 °F 94% 29.68 in 6.0 mi South 6.9 mph - N/A Rain Light Rain Showers
1:33 PM - - N/A% - 1.0 mi South 8.1 mph - N/A Rain Heavy Rain Showers
2:00 PM 69.8 °F 69.8 °F 100% 29.68 in 1.0 mi SSE 5.8 mph - N/A Rain Heavy Rain Showers
2:17 PM - - N/A% - 3.0 mi SSE 2.3 mph - N/A Rain Light Rain Showers
2:45 PM - - N/A% - 2.5 mi SSW 4.6 mph - N/A Rain Rain Showers
2:53 PM - - N/A% - 2.5 mi South 3.5 mph - N/A Rain Light Rain Showers
3:00 PM 70 °F 69 °F 94% 29.65 in 2 mi South 2.3 mph - - Rain Light Rain
3:00 PM 69.8 °F 68.0 °F 94% 29.65 in 2.5 mi South 3.5 mph - N/A Rain Light Rain
3:20 PM - - N/A% - 6.0 mi SSW 5.8 mph - N/A Rain Light Rain
4:00 PM 69.8 °F 68.0 °F 94% 29.65 in 6.0 mi SSW 5.8 mph - N/A Rain Light Rain
5:00 PM 71.6 °F 68.0 °F 88% 29.63 in 12.0 mi SE 2.3 mph - N/A Rain Light Rain
5:11 PM - - N/A% - 15.0 mi ESE 2.3 mph - N/A   Overcast
6:00 PM 71.6 °F 69.8 °F 94% 29.60 in 15.0 mi East 8.1 mph - N/A   Overcast
6:05 PM - - N/A% - 15.0 mi East 6.9 mph - N/A Rain Light Rain
7:00 PM 69.8 °F 68.0 °F 94% 29.57 in 9.0 mi ENE 9.2 mph - N/A Rain Light Rain
8:00 PM 68.0 °F 68.0 °F 100% 29.58 in 15.0 mi NNW 3.5 mph - N/A Rain Light Rain
8:12 PM - - N/A% - 15.0 mi NNW 3.5 mph - N/A   Mostly Cloudy
9:00 PM 68.0 °F 68.0 °F 100% 29.61 in 15.0 mi East 2.3 mph - N/A   Mostly Cloudy
10:00 PM 66.2 °F 66.2 °F 100% 29.62 in 15.0 mi South 2.3 mph - N/A   Mostly Cloudy
11:00 PM 66.2 °F 66.2 °F 100% 29.63 in 15.0 mi WSW 3.5 mph - N/A   Mostly Cloudy